Terug naar catalogus

STARLINK-32848

ActiefCommunicatieVLEO
NORAD 62808·PAYLOAD·🇺🇸 United States

Gelanceerd Jan 24, 2025 vanaf Vandenberg Space Force Base

Loading…

Volgende Passages (komende 24 uur)

TLE

VersSource: CelesTrak SupGP

Epoch: Sep 15, 2026, 02:04 UTC

1 62808C 25018C   26258.08659722  .00000746  00000+0  23988-4 0  2580
2 62808  53.1565 148.3343 0001227  81.9907  60.0537 15.31699575    16

Volg STARLINK-32848 in realtime met AllMySat

Download on the App Store